Regional Weather Roundup
Issued by NWS

Home | Current Version | Previous Version | Graphics & Text | Print | Product List | Glossary On
Versions: 1 2 3 4 5 6 7 8 9 10 11 12 13 14 15 16 17 18 19 20 21 22 23 24 25 26 27 28 29 30 31 32 33 34 35 36 37 38 39 40 41 42 43 44 45 46 47 48 49 50
000
ASUS43 KOAX 161602
RWRNE

WEATHER ROUNDUP FOR NEBRASKA
NATIONAL WEATHER SERVICE OMAHA NE
1100 AM CDT WED APR 16 2014

NOTES: SATELLITE DATA IS BEING USED TO AUGMENT CLOUD COVER ABOVE
       12000 FEET.
       "FAIR" INDICATES FEW OR NO CLOUDS BELOW 12,000 FEET WITH NO
       SIGNIFICANT WEATHER AND/OR OBSTRUCTIONS TO VISIBILITY.

  * THESE STATIONS DO NOT REPORT WEATHER SUCH AS RAIN...SNOW OR FOG.

NEZ001>004-019>022-054>056-161700-
NEBRASKA PANHANDLE

CITY           SKY/WX    TMP DP  RH WIND       PRES   REMARKS
SCOTTSBLUFF    PTSUNNY   46  30  53 NW26G32   29.90R
ALLIANCE       CLOUDY    40  34  79 NW30G39   29.84R WCI  28
CHADRON        LGT RAIN  39  36  89 NW13G23   29.89R FOG     WCI  31
KIMBALL        MOSUNNY   44  26  50 NW24G41   29.87R
SIDNEY         PTSUNNY   46  30  53 NW30G43   29.88R
$$

NEZ057>060-069>072-079>082-161700-
SOUTHWEST NEBRASKA

CITY           SKY/WX    TMP DP  RH WIND       PRES   REMARKS
NORTH PLATTE   MOSUNNY   51  35  54 N26G40    29.76R
IMPERIAL       MOSUNNY   52  34  50 NW31G40   29.80R
LEXINGTON      CLOUDY    54  40  59 NW26G36   29.72R
MCCOOK         MOSUNNY   56  38  50 NW24G39   29.77R
OGALLALA       MOSUNNY   50  35  55 NW29G39   29.80R
$$

NEZ005>010-023>029-035>040-094-161700-
NORTH CENTRAL NEBRASKA

CITY           SKY/WX    TMP DP  RH WIND       PRES   REMARKS
VALENTINE      CLOUDY    34  30  85 NW15G29   29.79R FOG     WCI  24
AINSWORTH      CLOUDY    36  31  85 NW23G30   29.76R WCI  24
BROKEN BOW     CLOUDY    47  36  65 NW25G35   29.71R
O`NEILL        PTSUNNY   47  32  55 NW25G32   29.66R
ORD            MOSUNNY   51  32  48 NW24G32   29.66R
THEDFORD       DRIZZLE   40  34  77 NW17G28   29.78R WCI  32
$$

NEZ041-046>049-061>064-073>077-083>087-161700-
SOUTH CENTRAL NEBRASKA

CITY           SKY/WX    TMP DP  RH WIND       PRES   REMARKS
GRAND ISLAND   CLOUDY    53  25  33 SW16      29.66R
AURORA         CLOUDY    53  25  34 SW23      29.66R
HASTINGS       CLOUDY    53  23  31 SW13G18   29.67R
HEBRON         PTSUNNY   57  22  25 SW26G35   29.70R
HOLDREGE       PTSUNNY   54  40  59 NW23G32   29.69S
KEARNEY *      PTSUNNY   54  37  54 NW23G31   29.69R
YORK           CLOUDY    54  25  32 S23G30    29.66F
$$

NEZ011>018-030>034-042>045-161700-
NORTHEAST NEBRASKA

CITY           SKY/WX    TMP DP  RH WIND       PRES   REMARKS
NORFOLK        CLOUDY    50  26  39 S21       29.63R
ALBION         CLOUDY    50  26  39 SW13      29.64R
BLAIR          CLOUDY    54  28  36 S25G35    29.72R
COLUMBUS *     CLOUDY    52  25  35 SW22G28   29.67S
FREMONT        CLOUDY    53  24  32 S21G29    29.69F
TEKAMAH        CLOUDY    54  28  36 S29G36    29.69F
$$

NEZ050>053-065>068-078-088>093-161700-
SOUTHEAST NEBRASKA

CITY           SKY/WX    TMP DP  RH WIND       PRES   REMARKS
LINCOLN        CLOUDY    56  25  30 S29G41    29.70S
OMAHA EPPLEY   CLOUDY    55  27  34 S29G37    29.73F
BEATRICE       CLOUDY    58  25  28 S32       29.73R
FALLS CITY     CLOUDY    56  29  35 S25G41    29.81F
NEBRASKA CITY  CLOUDY    55  28  34 S29G41    29.77S
PLATTSMOUTH    CLOUDY    55  25  31 S32G43    29.75S
$$

NEZ044-045-051>053-067-161700-
OMAHA AREA

CITY           SKY/WX    TMP DP  RH WIND       PRES   REMARKS
OMAHA EPPLEY   CLOUDY    55  27  34 S29G37    29.73F
BLAIR          CLOUDY    54  28  36 S25G35    29.72R
FREMONT        CLOUDY    53  24  32 S21G29    29.69F
MILLARD        CLOUDY    54  27  36 S17G28    29.74R
OFFUTT AFB     CLOUDY    55  28  35 S26G43    29.74F
PLATTSMOUTH    CLOUDY    55  25  31 S32G43    29.75S
WAHOO          FAIR      53  23  31 S18G31    29.70S
$$



USA.gov is the U.S. government's official web portal to all federal, state and local government web resources and services.